Time,TemperatureF,DewpointF,PressureIn,WindDirection,WindDirectionDegrees,WindSpeedMPH,WindSpeedGustMPH,Humidity,HourlyPrecipIn,Conditions,Clouds,dailyrainin,SoftwareType,DateUTC
2013-07-25 00:12:00,57.0,56.0,-100.00,SE,145,1.0,3.0,95,-99.99,,,-99.99,,2013-07-25 05:12:00,
2013-07-25 00:22:00,57.0,56.0,-100.00,SE,145,1.0,3.0,95,-99.99,,,-99.99,,2013-07-25 05:22:00,
2013-07-25 00:32:00,57.0,56.0,-100.00,SE,145,1.0,3.0,95,-99.99,,,-99.99,,2013-07-25 05:32:00,
2013-07-25 00:43:00,57.0,56.0,-100.00,SE,145,1.0,3.0,95,-99.99,,,-99.99,,2013-07-25 05:43:00,
2013-07-25 00:52:00,57.0,56.0,-100.00,SE,145,1.0,3.0,95,-99.99,,,-99.99,,2013-07-25 05:52:00,
2013-07-25 01:12:00,56.0,55.0,-100.00,ESE,120,2.0,6.0,96,-99.99,,,-99.99,,2013-07-25 06:12:00,
2013-07-25 01:22:00,56.0,55.0,-100.00,ESE,120,2.0,6.0,96,-99.99,,,-99.99,,2013-07-25 06:22:00,
2013-07-25 01:32:00,56.0,55.0,-100.00,ESE,120,2.0,6.0,96,-99.99,,,-99.99,,2013-07-25 06:32:00,
2013-07-25 01:42:00,56.0,55.0,-100.00,ESE,120,2.0,6.0,96,-99.99,,,-99.99,,2013-07-25 06:42:00,
2013-07-25 01:52:00,56.0,55.0,-100.00,ESE,120,2.0,6.0,96,-99.99,,,-99.99,,2013-07-25 06:52:00,
2013-07-25 01:53:00,56.0,55.0,-100.00,SSE,150,1.0,2.0,97,-99.99,,,-99.99,,2013-07-25 06:53:00,
2013-07-25 02:12:00,56.0,55.0,-100.00,SSE,150,1.0,2.0,97,-99.99,,,-99.99,,2013-07-25 07:12:00,
2013-07-25 02:22:00,56.0,55.0,-100.00,SSE,150,1.0,2.0,97,-99.99,,,-99.99,,2013-07-25 07:22:00,
2013-07-25 02:33:00,56.0,55.0,-100.00,SSE,150,1.0,2.0,97,-99.99,,,-99.99,,2013-07-25 07:33:00,
2013-07-25 02:43:00,56.0,55.0,-100.00,SSE,150,1.0,2.0,97,-99.99,,,-99.99,,2013-07-25 07:43:00,
2013-07-25 03:12:00,55.0,54.0,-100.00,SE,145,2.0,5.0,97,-99.99,,,-99.99,,2013-07-25 08:12:00,
2013-07-25 03:22:00,55.0,54.0,-100.00,SE,145,2.0,5.0,97,-99.99,,,-99.99,,2013-07-25 08:22:00,
2013-07-25 03:32:00,55.0,54.0,-100.00,SE,145,2.0,5.0,97,-99.99,,,-99.99,,2013-07-25 08:32:00,
2013-07-25 03:44:00,55.0,54.0,-100.00,SE,145,2.0,5.0,97,-99.99,,,-99.99,,2013-07-25 08:44:00,
2013-07-25 03:52:00,55.0,54.0,-100.00,SE,145,2.0,5.0,97,-99.99,,,-99.99,,2013-07-25 08:52:00,
2013-07-25 04:12:00,55.0,54.0,-100.00,SE,130,2.0,6.0,97,-99.99,,,-99.99,,2013-07-25 09:12:00,
2013-07-25 04:22:00,55.0,54.0,-100.00,SE,130,2.0,6.0,97,-99.99,,,-99.99,,2013-07-25 09:22:00,
2013-07-25 04:33:00,55.0,54.0,-100.00,SE,130,2.0,6.0,97,-99.99,,,-99.99,,2013-07-25 09:33:00,
2013-07-25 04:43:00,55.0,54.0,-100.00,SE,130,2.0,6.0,97,-99.99,,,-99.99,,2013-07-25 09:43:00,
2013-07-25 04:52:00,55.0,54.0,-100.00,SE,130,2.0,6.0,97,-99.99,,,-99.99,,2013-07-25 09:52:00,
2013-07-25 04:53:00,56.0,55.0,-100.00,SE,135,2.0,4.0,97,-99.99,,,-99.99,,2013-07-25 09:53:00,
2013-07-25 05:12:00,56.0,55.0,-100.00,SE,135,2.0,4.0,97,-99.99,,,-99.99,,2013-07-25 10:12:00,
2013-07-25 05:22:00,56.0,55.0,-100.00,SE,135,2.0,4.0,97,-99.99,,,-99.99,,2013-07-25 10:22:00,
2013-07-25 05:32:00,56.0,55.0,-100.00,SE,135,2.0,4.0,97,-99.99,,,-99.99,,2013-07-25 10:32:00,
2013-07-25 05:42:00,56.0,55.0,-100.00,SE,135,2.0,4.0,97,-99.99,,,-99.99,,2013-07-25 10:42:00,
2013-07-25 06:22:00,58.0,57.0,-100.00,SW,215,2.0,5.0,97,-99.99,,,-99.99,,2013-07-25 11:22:00,
2013-07-25 06:32:00,58.0,57.0,-100.00,SW,215,2.0,5.0,97,-99.99,,,-99.99,,2013-07-25 11:32:00,
2013-07-25 06:43:00,58.0,57.0,-100.00,SW,215,2.0,5.0,97,-99.99,,,-99.99,,2013-07-25 11:43:00,
2013-07-25 06:52:00,58.0,57.0,-100.00,SW,215,2.0,5.0,97,-99.99,,,-99.99,,2013-07-25 11:52:00,
2013-07-25 06:53:00,61.0,58.0,-100.00,South,170,3.0,4.0,92,-99.99,,,-99.99,,2013-07-25 11:53:00,
2013-07-25 07:12:00,61.0,58.0,-100.00,South,170,3.0,4.0,92,-99.99,,,-99.99,,2013-07-25 12:12:00,
2013-07-25 07:22:00,61.0,58.0,-100.00,South,170,3.0,4.0,92,-99.99,,,-99.99,,2013-07-25 12:22:00,
2013-07-25 07:32:00,61.0,58.0,-100.00,South,170,3.0,4.0,92,-99.99,,,-99.99,,2013-07-25 12:32:00,
2013-07-25 07:45:00,61.0,58.0,-100.00,South,170,3.0,4.0,92,-99.99,,,-99.99,,2013-07-25 12:45:00,
2013-07-25 08:12:00,65.0,60.0,-100.00,SSW,205,6.0,10.0,85,-99.99,,,-99.99,,2013-07-25 13:12:00,
2013-07-25 08:22:00,65.0,60.0,-100.00,SSW,205,6.0,10.0,85,-99.99,,,-99.99,,2013-07-25 13:22:00,
2013-07-25 08:33:00,65.0,60.0,-100.00,SSW,205,6.0,10.0,85,-99.99,,,-99.99,,2013-07-25 13:33:00,
2013-07-25 08:43:00,65.0,60.0,-100.00,SSW,205,6.0,10.0,85,-99.99,,,-99.99,,2013-07-25 13:43:00,
2013-07-25 08:52:00,65.0,60.0,-100.00,SSW,205,6.0,10.0,85,-99.99,,,-99.99,,2013-07-25 13:52:00,
2013-07-25 08:53:00,70.0,60.0,-100.00,South,190,7.0,12.0,71,-99.99,,,-99.99,,2013-07-25 13:53:00,
2013-07-25 09:12:00,70.0,60.0,-100.00,South,190,7.0,12.0,71,-99.99,,,-99.99,,2013-07-25 14:12:00,
2013-07-25 09:22:00,70.0,60.0,-100.00,South,190,7.0,12.0,71,-99.99,,,-99.99,,2013-07-25 14:22:00,
2013-07-25 09:33:00,70.0,60.0,-100.00,South,190,7.0,12.0,71,-99.99,,,-99.99,,2013-07-25 14:33:00,
2013-07-25 09:43:00,70.0,60.0,-100.00,South,190,7.0,12.0,71,-99.99,,,-99.99,,2013-07-25 14:43:00,
2013-07-25 10:12:00,73.0,60.0,-100.00,WSW,240,10.0,14.0,63,-99.99,,,-99.99,,2013-07-25 15:12:00,
2013-07-25 10:22:00,73.0,60.0,-100.00,WSW,240,10.0,14.0,63,-99.99,,,-99.99,,2013-07-25 15:22:00,
2013-07-25 10:32:00,73.0,60.0,-100.00,WSW,240,10.0,14.0,63,-99.99,,,-99.99,,2013-07-25 15:32:00,
2013-07-25 10:44:00,73.0,60.0,-100.00,WSW,240,10.0,14.0,63,-99.99,,,-99.99,,2013-07-25 15:44:00,
2013-07-25 10:52:00,73.0,60.0,-100.00,WSW,240,10.0,14.0,63,-99.99,,,-99.99,,2013-07-25 15:52:00,
2013-07-25 10:53:00,77.0,62.0,-100.00,SW,220,6.0,15.0,61,-99.99,,,-99.99,,2013-07-25 15:53:00,
2013-07-25 11:12:00,77.0,62.0,-100.00,SW,220,6.0,15.0,61,-99.99,,,-99.99,,2013-07-25 16:12:00,
2013-07-25 11:22:00,77.0,62.0,-100.00,SW,220,6.0,15.0,61,-99.99,,,-99.99,,2013-07-25 16:22:00,
2013-07-25 11:33:00,77.0,62.0,-100.00,SW,220,6.0,15.0,61,-99.99,,,-99.99,,2013-07-25 16:33:00,
2013-07-25 11:45:00,77.0,62.0,-100.00,SW,220,6.0,15.0,61,-99.99,,,-99.99,,2013-07-25 16:45:00,
2013-07-25 11:53:00,78.0,62.0,-100.00,SW,235,7.0,14.0,57,-99.99,,,-99.99,,2013-07-25 16:53:00,
2013-07-25 12:12:00,78.0,62.0,-100.00,SW,235,7.0,14.0,57,-99.99,,,-99.99,,2013-07-25 17:12:00,
2013-07-25 12:22:00,78.0,62.0,-100.00,SW,235,7.0,14.0,57,-99.99,,,-99.99,,2013-07-25 17:22:00,
2013-07-25 12:32:00,78.0,62.0,-100.00,SW,235,7.0,14.0,57,-99.99,,,-99.99,,2013-07-25 17:32:00,
2013-07-25 12:43:00,78.0,62.0,-100.00,SW,235,7.0,14.0,57,-99.99,,,-99.99,,2013-07-25 17:43:00,
2013-07-25 14:12:00,81.0,62.0,-100.00,WSW,250,7.0,12.0,52,-99.99,,,-99.99,,2013-07-25 19:12:00,
2013-07-25 14:22:00,81.0,62.0,-100.00,WSW,250,7.0,12.0,52,-99.99,,,-99.99,,2013-07-25 19:22:00,
2013-07-25 14:33:00,81.0,62.0,-100.00,WSW,250,7.0,12.0,52,-99.99,,,-99.99,,2013-07-25 19:33:00,
2013-07-25 14:43:00,81.0,62.0,-100.00,WSW,250,7.0,12.0,52,-99.99,,,-99.99,,2013-07-25 19:43:00,
2013-07-25 14:52:00,81.0,62.0,-100.00,WSW,250,7.0,12.0,52,-99.99,,,-99.99,,2013-07-25 19:52:00,
2013-07-25 14:53:00,82.0,61.0,-100.00,WSW,245,4.0,11.0,49,-99.99,,,-99.99,,2013-07-25 19:53:00,
2013-07-25 15:12:00,82.0,61.0,-100.00,WSW,245,4.0,11.0,49,-99.99,,,-99.99,,2013-07-25 20:12:00,
2013-07-25 15:22:00,82.0,61.0,-100.00,WSW,245,4.0,11.0,49,-99.99,,,-99.99,,2013-07-25 20:22:00,
2013-07-25 15:32:00,82.0,61.0,-100.00,WSW,245,4.0,11.0,49,-99.99,,,-99.99,,2013-07-25 20:32:00,
2013-07-25 15:43:00,82.0,61.0,-100.00,WSW,245,4.0,11.0,49,-99.99,,,-99.99,,2013-07-25 20:43:00,
2013-07-25 16:12:00,82.0,61.0,-100.00,NW,315,4.0,8.0,50,-99.99,,,-99.99,,2013-07-25 21:12:00,
2013-07-25 16:22:00,82.0,61.0,-100.00,NW,315,4.0,8.0,50,-99.99,,,-99.99,,2013-07-25 21:22:00,
2013-07-25 16:32:00,82.0,61.0,-100.00,NW,315,4.0,8.0,50,-99.99,,,-99.99,,2013-07-25 21:32:00,
2013-07-25 16:44:00,82.0,61.0,-100.00,NW,315,4.0,8.0,50,-99.99,,,-99.99,,2013-07-25 21:44:00,
2013-07-25 16:52:00,82.0,61.0,-100.00,NW,315,4.0,8.0,50,-99.99,,,-99.99,,2013-07-25 21:52:00,
2013-07-25 17:12:00,80.0,60.0,-100.00,NW,310,3.0,12.0,51,-99.99,,,-99.99,,2013-07-25 22:12:00,
2013-07-25 17:22:00,80.0,60.0,-100.00,NW,310,3.0,12.0,51,-99.99,,,-99.99,,2013-07-25 22:22:00,
2013-07-25 17:32:00,80.0,60.0,-100.00,NW,310,3.0,12.0,51,-99.99,,,-99.99,,2013-07-25 22:32:00,
2013-07-25 17:43:00,80.0,60.0,-100.00,NW,310,3.0,12.0,51,-99.99,,,-99.99,,2013-07-25 22:43:00,
2013-07-25 17:52:00,80.0,60.0,-100.00,NW,310,3.0,12.0,51,-99.99,,,-99.99,,2013-07-25 22:52:00,
2013-07-25 18:12:00,73.0,61.0,-100.00,South,185,7.0,17.0,65,-99.99,,,-99.99,,2013-07-25 23:12:00,
2013-07-25 18:22:00,73.0,61.0,-100.00,South,185,7.0,17.0,65,-99.99,,,-99.99,,2013-07-25 23:22:00,
2013-07-25 18:32:00,73.0,61.0,-100.00,South,185,7.0,17.0,65,-99.99,,,-99.99,,2013-07-25 23:32:00,
2013-07-25 18:43:00,73.0,61.0,-100.00,South,185,7.0,17.0,65,-99.99,,,-99.99,,2013-07-25 23:43:00,
2013-07-25 18:52:00,73.0,61.0,-100.00,South,185,7.0,17.0,65,-99.99,,,-99.99,,2013-07-25 23:52:00,
2013-07-25 19:12:00,70.0,62.0,-100.00,SSE,155,3.0,11.0,77,-99.99,,,-99.99,,2013-07-26 00:12:00,
2013-07-25 19:22:00,70.0,62.0,-100.00,SSE,155,3.0,11.0,77,-99.99,,,-99.99,,2013-07-26 00:22:00,
2013-07-25 19:33:00,70.0,62.0,-100.00,SSE,155,3.0,11.0,77,-99.99,,,-99.99,,2013-07-26 00:33:00,
2013-07-25 19:43:00,70.0,62.0,-100.00,SSE,155,3.0,11.0,77,-99.99,,,-99.99,,2013-07-26 00:43:00,
2013-07-25 19:52:00,70.0,62.0,-100.00,SSE,155,3.0,11.0,77,-99.99,,,-99.99,,2013-07-26 00:52:00,
2013-07-25 20:12:00,69.0,65.0,-100.00,South,185,2.0,7.0,87,-99.99,,,-99.99,,2013-07-26 01:12:00,
2013-07-25 20:22:00,69.0,65.0,-100.00,South,185,2.0,7.0,87,-99.99,,,-99.99,,2013-07-26 01:22:00,
2013-07-25 20:32:00,69.0,65.0,-100.00,South,185,2.0,7.0,87,-99.99,,,-99.99,,2013-07-26 01:32:00,
2013-07-25 20:43:00,69.0,65.0,-100.00,South,185,2.0,7.0,87,-99.99,,,-99.99,,2013-07-26 01:43:00,
2013-07-25 20:52:00,69.0,65.0,-100.00,South,185,2.0,7.0,87,-99.99,,,-99.99,,2013-07-26 01:52:00,
2013-07-25 21:12:00,65.0,65.0,-100.00,SW,215,9.0,12.0,98,-99.99,,,-99.99,,2013-07-26 02:12:00,
2013-07-25 21:22:00,65.0,65.0,-100.00,SW,215,9.0,12.0,98,-99.99,,,-99.99,,2013-07-26 02:22:00,
2013-07-25 21:32:00,65.0,65.0,-100.00,SW,215,9.0,12.0,98,-99.99,,,-99.99,,2013-07-26 02:32:00,
2013-07-25 21:43:00,65.0,65.0,-100.00,SW,215,9.0,12.0,98,-99.99,,,-99.99,,2013-07-26 02:43:00,
2013-07-25 21:52:00,65.0,65.0,-100.00,SW,215,9.0,12.0,98,-99.99,,,-99.99,,2013-07-26 02:52:00,
2013-07-25 21:53:00,66.0,65.0,-100.00,SSW,195,7.0,13.0,96,-99.99,,,-99.99,,2013-07-26 02:53:00,
2013-07-25 22:12:00,66.0,65.0,-100.00,SSW,195,7.0,13.0,96,-99.99,,,-99.99,,2013-07-26 03:12:00,
2013-07-25 22:22:00,66.0,65.0,-100.00,SSW,195,7.0,13.0,96,-99.99,,,-99.99,,2013-07-26 03:22:00,
2013-07-25 22:32:00,66.0,65.0,-100.00,SSW,195,7.0,13.0,96,-99.99,,,-99.99,,2013-07-26 03:32:00,
2013-07-25 22:43:00,66.0,65.0,-100.00,SSW,195,7.0,13.0,96,-99.99,,,-99.99,,2013-07-26 03:43:00,
2013-07-25 22:53:00,65.0,63.0,-100.00,South,180,4.0,6.0,94,-99.99,,,-99.99,,2013-07-26 03:53:00,
2013-07-25 23:12:00,65.0,63.0,-100.00,South,180,4.0,6.0,94,-99.99,,,-99.99,,2013-07-26 04:12:00,
2013-07-25 23:22:00,65.0,63.0,-100.00,South,180,4.0,6.0,94,-99.99,,,-99.99,,2013-07-26 04:22:00,
2013-07-25 23:32:00,65.0,63.0,-100.00,South,180,4.0,6.0,94,-99.99,,,-99.99,,2013-07-26 04:32:00,
2013-07-25 23:42:00,65.0,63.0,-100.00,South,180,4.0,6.0,94,-99.99,,,-99.99,,2013-07-26 04:42:00,